HULIANWANG DIGUI-22

Satellite information

Favourite Embed

Satellite Type and Status

PAYLOADIN ORBIT

Key statistics

Satellite HULIANWANG DIGUI-22 at a glance.

Uptime

229

Days in orbit

Revolutions

≈ 13.2

Per day

Orbit

LEO

Low Earth Orbit

Inclination

86.5

Latest

Satellite identification and parameters

Extended collection of information and parameters for HULIANWANG DIGUI-22.

Object identification

Identified? True

Debris? False

Object name: HULIANWANG DIGUI-22

International designator: 2025-086C

Object number (NORAD): 63689

Object ID (CCSDS): 63689

Country: PEOPLES REPUBLIC OF CHINA (PRC)

Current information (Y/N): Y

RCS size: LARGE

Orbital parameters

Period: 108.727 minutes

Inclination: 86.5058 deg

SMA: 7546.043 km

Apoapsis: 1169.401 km

Periapsis: 1166.416 km

RAAN: 15.9973 deg

Eccentricy: 0.00019777

Argument of periapsis: 84.3338 deg

Mean anomaly: 275.8021 deg

Mean motion: 13.24414193 rev/day

Mean motion (dot): 0.00000061 rev/day2

B* drag term: 0.00010797131 1/REarth

Two-line elements (TLE)

Creation date: Dec. 12, 2025, 10:14 a.m.

Reference frame: TEME

Reference center: EARTH

Epoch: Dec. 12, 2025, 6:50 a.m. UTC

TLE line 0: 0 HULIANWANG DIGUI-22

TLE line 1: 1 63689U 25086C 25346.28503551 .00000061 00000-0 10797-3 0 9996

TLE line 2: 2 63689 86.5058 15.9973 0001978 84.3338 275.8021 13.24414193 30127

Live tracking on map

Real-time ground track for satellite HULIANWANG DIGUI-22.

In-orbit conjunctions

There are no conjunctions computed for HULIANWANG DIGUI-22, at the moment. Check back to stay up to date, as we update our databases every day.

Go to all conjunctions

Associated space launch

A batch of 10 Low Earth Orbit communication satellites for the Chinese state owned SatNet constellation operated by the China Satellite Network Group. The constellation will eventually consists of 13000 satellites.

HULIANWANG DIGUI-22 was lifted into orbit during the mission ‘Long March 5B/YZ-2 | SatNet LEO Group 03’, on board a Long March 5B/YZ-2 space rocket.

The launch took place on April 28, 2025, 8:10 p.m. from 101.

For more information about the launch, click the button.

Launch to space Long March 5B/YZ-2 | SatNet LEO Group 03
Long March 5B/YZ-2 | SatNet LEO Group 03

Agency: N/A

Status: Launch Successful

Launch date: April 28, 2025, 8:10 p.m. UTC

Rocket: Long March 5B/YZ-2

Launch pad: 101

Location: Wenchang Space Launch Site, People's Republic of China

...

Latest news about this satellite

News about space launch
China launches third batch of Guowang megaconstellation satellites

China launched a third batch of Guowang megaconstellation satellites Tuesday, advancing its ambitious low Earth orbit communications network to rival Starlink and other global systems. The post China launches third batch of Guowang megaconstellation sate...


Newsletter sign-up

Weekly statistics, charts and insights to help you stay on top of the space industry.